sat.trackr.live / text

‹ back to catalog

HAISHAO-1

NORAD 62190 · 2024-228A

PAYLOAD ACTIVE UNKNOWN

§ Identity

Operator
Country
PRC
Launch date
2024-12-04
Launch site
XICLF
Launch vehicle
Mass (kg)
RCS (m²)

External: N2YO · Heavens-Above · Gunter

§ Orbital elements

Epoch: 2026-09-22T21:11:44.263680Z

Period
92.00 min
Inclination
42.9777°
Eccentricity
0.0005040
Mean motion
15.65139614 rev/d
Perigee alt
369.4 km
Apogee alt
376.2 km
Semi-major
6,751.0 km
B*
2.1620e-4
RAAN
141.1155°
Arg perigee
280.3430°
Mean anomaly
79.6867°
Rev number
10,289

§ Raw data

HAISHAO-11 62190U 24228A   26265.88315120  .00021617  00000+0  21620-3 0  99952 62190  42.9777 141.1155 0005040 280.3430  79.6867 15.65139614102897

JSON: /api/v1/satellites/62190 · /tle

For live sub-satellite position, see the globe view (requires WebGL).

§ Visibility from observer

Set your observer location to see the next 7 days of passes ≥ 10°. The values pass through the URL so the page stays shareable.

No JS? Fill the form by hand. The geolocation button needs JavaScript.